Tucson, AZ

6:34 AM MST on May 24, 2017 (GMT -0700)
Tucson International

Weather History for KTUS - September, 2011

Change the Weather History Date:

Saturday, September 3, 2011

  Actual Average Record
Temperature  
Mean Temperature 91 °F 84 °F  
Max Temperature 103 °F 97 °F 107 °F (1948)
Min Temperature 78 °F 72 °F 58 °F (1913)
Degree Days  
Heating Degree Days 0 0  
Month to date heating degree days 0 0  
Since 1 July heating degree days 0 0  
Cooling Degree Days 26 20  
Month to date cooling degree days 79 60  
Year to date cooling degree days 2714 2470  
Growing Degree Days 40 (Base 50)    
Moisture  
Dew Point 52 °F    
Average Humidity 34    
Maximum Humidity 54    
Minimum Humidity 13    
Precipitation  
Precipitation 0.00 in 0.05 in 1.72 in (1996)
Month to date precipitation T 0.17  
Year to date precipitation 3.57 8.08  
Snow  
Snow 0.00 in - - ()
Month to date snowfall 0.0  
Snow Depth 0.00 in    
Sea Level Pressure  
Sea Level Pressure 29.74 in    
Wind  
Wind Speed 6 mph (West)    
Max Wind Speed 16 mph    
Max Gust Speed 23 mph    
Visibility 10 miles    
Events      
T = Trace of Precipitation, MM = Missing Value Source: NWS Daily Summary

Daily Weather History Graph

Daily Weather History Graph

Search for Another Location

Airport or City:

Trip Planner

Search our weather history database for the weather conditions in past years. The results will help you decide how hot, cold, wet, or windy it might be!

Date:

Astronomy

Sep. 03, 2011 Rise Set
Actual Time 6:00 AM MST 6:45 PM MST
Civil Twilight 5:35 AM MST 7:10 PM MST
Nautical Twilight 5:05 AM MST 7:39 PM MST
Astronomical Twilight 4:35 AM MST 8:09 PM MST
Moon 12:17 PM MST (9/3) 10:41 PM MST (9/3)
Length of Visible Light 13h 35m
Length of Day
12h 45m
Waxing Crescent, 39% of the Moon is Illuminated
Sep 3
Waxing Crescent
Sep 4
First Quarter
Sep 12
Full
Sep 20
Last Quarter
Sep 27
New

Hourly Weather History & Observations

Time (MST) Temp. Heat Index Dew Point Humidity Pressure Visibility Wind Dir Wind Speed Gust Speed Precip Events Conditions
12:53 AM 84.0 °F 83.8 °F 59.0 °F 43% 29.74 in 10.0 mi SE 5.8 mph - N/A   Clear
1:53 AM 82.0 °F 82.4 °F 60.1 °F 47% 29.73 in 10.0 mi SSE 3.5 mph - N/A   Clear
2:53 AM 81.0 °F 81.3 °F 59.0 °F 47% 29.73 in 10.0 mi Calm Calm - N/A   Clear
3:53 AM 79.0 °F - 60.1 °F 52% 29.73 in 10.0 mi SW 3.5 mph - N/A   Clear
4:53 AM 80.1 °F 80.2 °F 55.9 °F 43% 29.74 in 10.0 mi Calm Calm - N/A   Clear
5:53 AM 78.8 °F - 59.0 °F 51% 29.91 in 10.0 mi SE 5.8 mph - N/A   Clear
6:53 AM 78.1 °F - 60.1 °F 54% 29.79 in 10.0 mi South 3.5 mph - N/A   Clear
7:53 AM 81.0 °F 81.6 °F 60.1 °F 49% 29.80 in 10.0 mi South 3.5 mph - N/A   Clear
8:53 AM 87.1 °F 86.5 °F 59.0 °F 39% 29.78 in 10.0 mi Calm Calm - N/A   Clear
9:53 AM 89.1 °F 87.7 °F 57.0 °F 34% 29.78 in 10.0 mi Calm Calm - N/A   Clear
10:53 AM 93.0 °F 91.4 °F 55.9 °F 29% 29.78 in 10.0 mi Calm Calm - N/A   Clear
11:53 AM 97.0 °F 94.6 °F 53.1 °F 23% 29.75 in 10.0 mi Variable 4.6 mph - N/A   Clear
12:53 PM 100.0 °F - 50.0 °F 18% 29.73 in 10.0 mi Variable 5.8 mph - N/A   Clear
1:53 PM 100.9 °F - 46.9 °F 16% 29.71 in 10.0 mi NW 11.5 mph 16.1 mph N/A   Clear
2:53 PM 102.0 °F - 46.0 °F 15% 29.68 in 10.0 mi NNW 11.5 mph - N/A   Clear
3:53 PM 102.0 °F - 44.1 °F 14% 29.67 in 10.0 mi NNW 15.0 mph - N/A   Clear
4:53 PM 100.4 °F - 42.8 °F 14% 29.83 in 10.0 mi NW 10.4 mph 18.4 mph N/A   Clear
5:53 PM 99.0 °F - 44.1 °F 15% 29.66 in 10.0 mi NW 12.7 mph 20.7 mph N/A   Clear
6:53 PM 96.1 °F - 44.1 °F 17% 29.68 in 10.0 mi NW 11.5 mph - N/A   Clear
7:53 PM 95.0 °F - 46.0 °F 19% 29.69 in 10.0 mi NW 8.1 mph - N/A   Clear
8:53 PM 93.0 °F - 46.0 °F 20% 29.70 in 10.0 mi NW 5.8 mph - N/A   Clear
9:53 PM 90.0 °F - 48.0 °F 24% 29.71 in 10.0 mi NNW 4.6 mph - N/A   Clear
10:53 PM 86.0 °F - 48.0 °F 27% 29.72 in 10.0 mi SW 5.8 mph - N/A   Clear
11:53 PM 84.0 °F - 48.0 °F 28% 29.73 in 10.0 mi SSE 3.5 mph - N/A   Clear